Tracking 35331 objects as of 15-Sep-2026
HD Live streaming from Space Station
objects crossing your sky now

COSMOS 1813 DEB


COSMOS 1813 DEB is no longer on orbit


NORAD ID: 17500
Int'l Code: 1987-004AQ
Launch date: January 15, 1987
Source: Commonwealth of Independent States (former USSR) (CIS)
Launch site: PLESETSK MISSILE AND SPACE COMPLEX (PKMTR)
Decay date: 1990-01-30

Note: This is SATELLITE DEBRIS
Your satellite tracking list
Your tracking list is empty




NASA's NSSDC Master Catalog

Two Line Element Set (TLE):
1 17500U 87004 AQ 90028.63973978  .02961661 +25999-5 +18457-2 0  9990
2 17500 072.7577 013.8482 0032406 319.4300 039.4178 16.16377410163931
Source of the keplerian elements: AFSPC